Hourly Weather Rudnya-Ozeryans'ka

Today, 18 April, Sunday

Time Temperature Precipitation Wind Pressure Humidity
00:00 +4°C° 0 mm 2 mps 746 mmHg 95%
01:00 +3°C° 0 mm 2 mps 746 mmHg 96%
02:00 +3°C° 0 mm 2 mps 746 mmHg 97%
03:00 +4°C° 0 mm 2 mps 746 mmHg 96%
04:00 +4°C° 0 mm 2 mps 746 mmHg 95%
05:00 +4°C° 0 mm 2 mps 746 mmHg 94%
06:00 +4°C° 0 mm 3 mps 746 mmHg 91%
07:00 +5°C° 0 mm 3 mps 746 mmHg 88%
08:00 +5°C° 0 mm 3 mps 746 mmHg 86%
09:00 +8°C° 0 mm 3 mps 746 mmHg 82%
10:00 +9°C° 0 mm 3 mps 745 mmHg 78%
11:00 +11°C° 0 mm 3 mps 745 mmHg 74%
12:00 +11°C° 0.1 mm 3 mps 745 mmHg 75%
13:00 +11°C° 0.1 mm 3 mps 745 mmHg 75%
14:00 +13°C° 0.1 mm 2 mps 745 mmHg 76%
15:00 +11°C° 0.1 mm 3 mps 745 mmHg 75%
16:00 +11°C° 0.1 mm 3 mps 745 mmHg 75%
17:00 +11°C° 0.1 mm 3 mps 746 mmHg 75%
18:00 +10°C° 0 mm 3 mps 746 mmHg 80%
19:00 +9°C° 0 mm 3 mps 746 mmHg 85%
20:00 +8°C° 0 mm 3 mps 746 mmHg 90%
21:00 +7°C° 0 mm 2 mps 747 mmHg 91%
22:00 +7°C° 0 mm 2 mps 747 mmHg 92%
23:00 +7°C° 0 mm 2 mps 747 mmHg 93%

Tomorrow, 19 April, Monday

Time Temperature Precipitation Wind Pressure Humidity
00:00 +6°C° 0 mm 2 mps 747 mmHg 93%
01:00 +5°C° 0 mm 2 mps 747 mmHg 93%
02:00 +4°C° 0 mm 2 mps 747 mmHg 94%
03:00 +4°C° 0 mm 2 mps 747 mmHg 94%
04:00 +3°C° 0 mm 2 mps 747 mmHg 94%
05:00 +3°C° 0 mm 2 mps 747 mmHg 94%
06:00 +4°C° 0 mm 2 mps 747 mmHg 88%
07:00 +6°C° 0 mm 2 mps 747 mmHg 82%
08:00 +7°C° 0 mm 2 mps 747 mmHg 75%
09:00 +9°C° 0 mm 3 mps 747 mmHg 68%
10:00 +10°C° 0 mm 3 mps 746 mmHg 61%
11:00 +12°C° 0 mm 3 mps 746 mmHg 53%
12:00 +12°C° 0 mm 4 mps 746 mmHg 53%
13:00 +12°C° 0 mm 4 mps 746 mmHg 52%
14:00 +12°C° 0 mm 4 mps 746 mmHg 51%
15:00 +12°C° 0 mm 4 mps 746 mmHg 55%
16:00 +11°C° 0 mm 4 mps 746 mmHg 59%
17:00 +10°C° 0 mm 4 mps 746 mmHg 63%
18:00 +9°C° 0 mm 3 mps 746 mmHg 67%
19:00 +8°C° 0 mm 3 mps 746 mmHg 71%
20:00 +7°C° 0 mm 2 mps 746 mmHg 76%
21:00 +6°C° 0 mm 2 mps 745 mmHg 80%
22:00 +6°C° 0 mm 2 mps 745 mmHg 84%
23:00 +5°C° 0 mm 2 mps 745 mmHg 88%

Day after tomorrow, 20 April, Tuesday

Time Temperature Precipitation Wind Pressure Humidity
00:00 +5°C° 0 mm 2 mps 745 mmHg 90%
01:00 +4°C° 0 mm 2 mps 744 mmHg 93%
02:00 +4°C° 0 mm 2 mps 744 mmHg 95%
03:00 +4°C° 0 mm 2 mps 744 mmHg 95%
04:00 +4°C° 0 mm 3 mps 744 mmHg 95%
05:00 +4°C° 0 mm 3 mps 744 mmHg 95%
06:00 +4°C° 0 mm 3 mps 744 mmHg 91%
07:00 +5°C° 0 mm 3 mps 743 mmHg 87%
08:00 +5°C° 0 mm 4 mps 743 mmHg 83%
09:00 +6°C° 0 mm 4 mps 743 mmHg 77%
10:00 +6°C° 0 mm 4 mps 743 mmHg 70%
11:00 +7°C° 0 mm 4 mps 743 mmHg 64%
12:00 +7°C° 0 mm 4 mps 742 mmHg 65%
13:00 +7°C° 0 mm 4 mps 742 mmHg 67%
14:00 +6°C° 0 mm 4 mps 742 mmHg 69%
15:00 +6°C° 0 mm 4 mps 742 mmHg 69%
16:00 +6°C° 0 mm 4 mps 741 mmHg 69%
17:00 +7°C° 0 mm 4 mps 741 mmHg 69%
18:00 +7°C° 0 mm 3 mps 741 mmHg 72%
19:00 +5°C° 0 mm 3 mps 741 mmHg 76%
20:00 +5°C° 0 mm 2 mps 741 mmHg 79%
21:00 +4°C° 0 mm 2 mps 741 mmHg 83%
22:00 +3°C° 0 mm 2 mps 741 mmHg 88%
23:00 +2°C° 0 mm 2 mps 740 mmHg 92%

21 April, Wednesday

Time Temperature Precipitation Wind Pressure Humidity
00:00 +2°C° 0 mm 2 mps 740 mmHg 93%
01:00 +2°C° 0 mm 2 mps 740 mmHg 94%
02:00 +2°C° 0 mm 2 mps 740 mmHg 95%
03:00 +2°C° 0 mm 2 mps 740 mmHg 95%
04:00 +1°C° 0 mm 2 mps 741 mmHg 94%
05:00 +1°C° 0 mm 2 mps 741 mmHg 94%
06:00 +3°C° 0 mm 2 mps 741 mmHg 89%
07:00 +4°C° 0 mm 3 mps 741 mmHg 83%
08:00 +5°C° 0 mm 3 mps 741 mmHg 77%
09:00 +8°C° 0.1 mm 3 mps 741 mmHg 71%
10:00 +8°C° 0.1 mm 4 mps 741 mmHg 65%
11:00 +10°C° 0.1 mm 4 mps 741 mmHg 59%
12:00 +11°C° 0.1 mm 4 mps 741 mmHg 56%
13:00 +12°C° 0.1 mm 4 mps 741 mmHg 52%
14:00 +13°C° 0.1 mm 4 mps 741 mmHg 49%
15:00 +13°C° 0.1 mm 3 mps 741 mmHg 51%
16:00 +12°C° 0.1 mm 3 mps 742 mmHg 54%
17:00 +12°C° 0.1 mm 3 mps 742 mmHg 56%
18:00 +12°C° 0 mm 2 mps 742 mmHg 64%
19:00 +9°C° 0 mm 2 mps 742 mmHg 72%
20:00 +8°C° 0 mm 1 mps 743 mmHg 81%
21:00 +7°C° 0.1 mm 2 mps 743 mmHg 83%
22:00 +7°C° 0.1 mm 2 mps 743 mmHg 86%
23:00 +6°C° 0.1 mm 2 mps 743 mmHg 89%

22 April, Thursday

Time Temperature Precipitation Wind Pressure Humidity
00:00 +6°C° 0 mm 2 mps 743 mmHg 89%
01:00 +6°C° 0 mm 2 mps 743 mmHg 89%
02:00 +5°C° 0 mm 2 mps 744 mmHg 89%
03:00 +5°C° 0 mm 2 mps 744 mmHg 90%
04:00 +5°C° 0 mm 2 mps 744 mmHg 91%
05:00 +5°C° 0 mm 2 mps 744 mmHg 92%
06:00 +7°C° 0 mm 2 mps 744 mmHg 86%
07:00 +8°C° 0 mm 2 mps 744 mmHg 80%
08:00 +10°C° 0 mm 3 mps 745 mmHg 74%
09:00 +12°C° 0.1 mm 3 mps 745 mmHg 67%
10:00 +13°C° 0.1 mm 3 mps 745 mmHg 61%
11:00 +15°C° 0.1 mm 4 mps 745 mmHg 55%
12:00 +15°C° 0.3 mm 4 mps 745 mmHg 53%
13:00 +17°C° 0.3 mm 4 mps 745 mmHg 51%
14:00 +17°C° 0.3 mm 4 mps 744 mmHg 49%
15:00 +16°C° 0.3 mm 3 mps 744 mmHg 54%
16:00 +14°C° 0.3 mm 3 mps 744 mmHg 60%
17:00 +15°C° 0.3 mm 2 mps 744 mmHg 65%
18:00 +13°C° 0.4 mm 2 mps 745 mmHg 72%
19:00 +12°C° 0.4 mm 1 mps 745 mmHg 79%
20:00 +10°C° 0.4 mm 1 mps 745 mmHg 86%
21:00 +10°C° 0 mm 1 mps 745 mmHg 88%
22:00 +9°C° 0 mm 1 mps 745 mmHg 89%
23:00 +8°C° 0 mm 2 mps 745 mmHg 91%

23 April, Friday

Time Temperature Precipitation Wind Pressure Humidity
00:00 +7°C° 0 mm 2 mps 745 mmHg 91%
01:00 +7°C° 0 mm 2 mps 744 mmHg 92%
02:00 +7°C° 0 mm 2 mps 744 mmHg 93%
03:00 +7°C° 0 mm 3 mps 744 mmHg 93%
04:00 +7°C° 0 mm 3 mps 745 mmHg 92%
05:00 +7°C° 0 mm 3 mps 745 mmHg 92%
06:00 +7°C° 0 mm 3 mps 745 mmHg 89%
07:00 +7°C° 0 mm 3 mps 745 mmHg 85%
08:00 +7°C° 0 mm 3 mps 746 mmHg 81%
09:00 +8°C° 0 mm 3 mps 746 mmHg 77%
10:00 +8°C° 0 mm 3 mps 746 mmHg 72%
11:00 +9°C° 0 mm 3 mps 747 mmHg 68%
12:00 +9°C° 0.1 mm 3 mps 747 mmHg 67%
13:00 +9°C° 0.1 mm 3 mps 747 mmHg 66%
14:00 +9°C° 0.1 mm 3 mps 747 mmHg 64%
15:00 +9°C° 0 mm 3 mps 747 mmHg 61%
16:00 +10°C° 0 mm 3 mps 747 mmHg 58%
17:00 +10°C° 0 mm 3 mps 747 mmHg 55%
18:00 +9°C° 0 mm 2 mps 747 mmHg 61%
19:00 +8°C° 0 mm 2 mps 747 mmHg 67%
20:00 +6°C° 0 mm 2 mps 748 mmHg 73%
21:00 +6°C° 0 mm 2 mps 748 mmHg 77%
22:00 +6°C° 0 mm 2 mps 748 mmHg 80%
23:00 +4°C° 0 mm 3 mps 748 mmHg 84%
Show more